Tracking 17694 objects as of 26-May-2016
HD Live streaming from Space Station
objects crossing your sky now

SL-14 R/B

Track SL-14 R/B now!
10-day predictions


NORAD ID: 16736
Int'l Code: 1986-039B
Perigee: 943.8 km
Apogee: 964.7 km
Inclination: 82.5 °
Period: 104.0 minutes
Semi major axis: 7325 km
RCS: 5.1168 m2 (large)
Launch date: May 27, 1986
Source: Commonwealth of Independent States (former USSR) (CIS)
Launch site: PLESETSK MISSILE AND SPACE COMPLEX (PKMTR)

Note: This is a ROCKET BODY
Your satellite tracking list
Your tracking list is empty





NASA's NSSDC Master Catalog

Two Line Element Set (TLE):
1 16736U 86039B   16146.88742949  .00000003  00000-0 -10876-4 0  9998
2 16736  82.5365 335.6735 0014268 105.3576 254.9162 13.84736095516102
Source of the keplerian elements: AFSPC

N2YO: 574